When you browse on this site, cookies collect data to enhance your experience and personalize the content and advertising you see.
Visit our Privacy Policy to learn more. By continuing to use the site, you agree to this use of cookies and data.
  • In Hungary
  • List of Countries
  • For 7 days
  • Water Temperature
  • Weather Map
  • News
  • Weather Widgets
  • user-avatar
    Login

    Hourly Weather Kuznechiha

    Today, 25 January, Saturday

    Time Temperature Precipitation Wind Pressure Humidity
    00:00 -1°C° 0 mm 4 mps 729 mmHg 94%
    01:00 -1°C° 0 mm 4 mps 730 mmHg 90%
    02:00 -2°C° 0 mm 4 mps 730 mmHg 87%
    03:00 -2°C° 0 mm 4 mps 729 mmHg 86%
    04:00 -2°C° 0 mm 4 mps 729 mmHg 86%
    05:00 -1°C° 0 mm 3 mps 729 mmHg 85%
    06:00 -2°C° 0 mm 4 mps 728 mmHg 85%
    07:00 -2°C° 0 mm 4 mps 728 mmHg 85%
    08:00 -1°C° 0 mm 4 mps 728 mmHg 85%
    09:00 -1°C° 0.2 mm 5 mps 727 mmHg 87%
    10:00 -2°C° 0.2 mm 6 mps 727 mmHg 88%
    11:00 -2°C° 0.2 mm 7 mps 727 mmHg 90%
    12:00 -3°C° 0.2 mm 7 mps 727 mmHg 82%
    13:00 -3°C° 0.2 mm 7 mps 728 mmHg 75%
    14:00 -3°C° 0.2 mm 7 mps 728 mmHg 67%
    15:00 -3°C° 0 mm 6 mps 728 mmHg 72%
    16:00 -4°C° 0 mm 6 mps 729 mmHg 76%
    17:00 -5°C° 0 mm 6 mps 730 mmHg 81%
    18:00 -5°C° 0.2 mm 6 mps 730 mmHg 81%
    19:00 -5°C° 0.2 mm 6 mps 730 mmHg 81%
    20:00 -5°C° 0.2 mm 6 mps 731 mmHg 81%
    21:00 -5°C° 0 mm 6 mps 732 mmHg 81%
    22:00 -5°C° 0 mm 6 mps 733 mmHg 80%
    23:00 -6°C° 0 mm 6 mps 734 mmHg 79%

    Tomorrow, 26 January, Sunday

    Time Temperature Precipitation Wind Pressure Humidity
    00:00 -6°C° 0 mm 5 mps 735 mmHg 78%
    01:00 -6°C° 0 mm 5 mps 735 mmHg 78%
    02:00 -6°C° 0 mm 5 mps 736 mmHg 77%
    03:00 -5°C° 0 mm 4 mps 737 mmHg 78%
    04:00 -5°C° 0 mm 4 mps 737 mmHg 79%
    05:00 -7°C° 0 mm 4 mps 738 mmHg 80%
    06:00 -5°C° 0 mm 3 mps 738 mmHg 82%
    07:00 -5°C° 0 mm 3 mps 738 mmHg 83%
    08:00 -5°C° 0 mm 3 mps 739 mmHg 84%
    09:00 -5°C° 0 mm 3 mps 739 mmHg 80%
    10:00 -4°C° 0 mm 3 mps 739 mmHg 77%
    11:00 -3°C° 0 mm 4 mps 739 mmHg 74%
    12:00 -3°C° 0.1 mm 4 mps 738 mmHg 79%
    13:00 -4°C° 0.1 mm 5 mps 737 mmHg 83%
    14:00 -4°C° 0.1 mm 6 mps 737 mmHg 88%
    15:00 -2°C° 0.2 mm 5 mps 736 mmHg 90%
    16:00 -2°C° 0.2 mm 5 mps 735 mmHg 92%
    17:00 -1°C° 0.2 mm 5 mps 735 mmHg 94%
    18:00 0°C° 0.2 mm 5 mps 734 mmHg 93%
    19:00 -1°C° 0.2 mm 6 mps 734 mmHg 92%
    20:00 +1°C° 0.2 mm 6 mps 734 mmHg 90%
    21:00 +1°C° 0.1 mm 6 mps 734 mmHg 90%
    22:00 +1°C° 0.1 mm 6 mps 735 mmHg 90%
    23:00 +1°C° 0.1 mm 6 mps 735 mmHg 90%

    Day after tomorrow, 27 January, Monday

    Time Temperature Precipitation Wind Pressure Humidity
    00:00 +1°C° 0 mm 5 mps 735 mmHg 91%
    01:00 +1°C° 0 mm 5 mps 736 mmHg 92%
    02:00 +1°C° 0 mm 4 mps 736 mmHg 92%
    03:00 +1°C° 0.1 mm 4 mps 736 mmHg 93%
    04:00 +1°C° 0.1 mm 4 mps 737 mmHg 95%
    05:00 +1°C° 0.1 mm 3 mps 737 mmHg 96%
    06:00 +1°C° 0.2 mm 3 mps 738 mmHg 96%
    07:00 +2°C° 0.2 mm 2 mps 738 mmHg 97%
    08:00 +1°C° 0.2 mm 2 mps 738 mmHg 97%
    09:00 +1°C° 0.1 mm 2 mps 739 mmHg 97%
    10:00 +1°C° 0.1 mm 1 mps 739 mmHg 96%
    11:00 +1°C° 0.1 mm 1 mps 739 mmHg 96%
    12:00 +1°C° 0.2 mm 1 mps 740 mmHg 96%
    13:00 +1°C° 0.2 mm 1 mps 740 mmHg 96%
    14:00 +1°C° 0.2 mm 1 mps 740 mmHg 95%
    15:00 +1°C° 0.4 mm 1 mps 739 mmHg 96%
    16:00 -1°C° 0.4 mm 2 mps 739 mmHg 97%
    17:00 -2°C° 0.4 mm 2 mps 739 mmHg 97%
    18:00 -2°C° 0.5 mm 2 mps 739 mmHg 97%
    19:00 -2°C° 0.5 mm 2 mps 739 mmHg 97%
    20:00 -2°C° 0.5 mm 2 mps 740 mmHg 97%
    21:00 -2°C° 0.4 mm 2 mps 739 mmHg 97%
    22:00 -2°C° 0.4 mm 2 mps 739 mmHg 97%
    23:00 -2°C° 0.4 mm 2 mps 739 mmHg 97%

    28 January, Tuesday

    Time Temperature Precipitation Wind Pressure Humidity
    00:00 -1°C° 0.2 mm 2 mps 739 mmHg 97%
    01:00 -1°C° 0.2 mm 2 mps 739 mmHg 97%
    02:00 +1°C° 0.2 mm 1 mps 738 mmHg 97%
    03:00 +1°C° 0.1 mm 1 mps 738 mmHg 98%
    04:00 +2°C° 0.1 mm 1 mps 738 mmHg 98%
    05:00 +2°C° 0.1 mm 1 mps 738 mmHg 98%
    06:00 +2°C° 0.2 mm 1 mps 738 mmHg 98%
    07:00 +2°C° 0.2 mm 1 mps 738 mmHg 98%
    08:00 +2°C° 0.2 mm 1 mps 738 mmHg 98%
    09:00 +1°C° 0.1 mm 2 mps 738 mmHg 98%
    10:00 +1°C° 0.1 mm 2 mps 738 mmHg 98%
    11:00 +1°C° 0.1 mm 2 mps 738 mmHg 98%
    12:00 +1°C° 0.1 mm 2 mps 737 mmHg 98%
    13:00 +1°C° 0.1 mm 2 mps 737 mmHg 98%
    14:00 +2°C° 0.1 mm 1 mps 737 mmHg 98%
    15:00 +1°C° 0.1 mm 2 mps 737 mmHg 98%
    16:00 -1°C° 0.1 mm 2 mps 737 mmHg 98%
    17:00 -1°C° 0.1 mm 2 mps 737 mmHg 98%
    18:00 -1°C° 0.1 mm 2 mps 737 mmHg 97%
    19:00 -1°C° 0.1 mm 2 mps 737 mmHg 97%
    20:00 -2°C° 0.1 mm 2 mps 737 mmHg 97%
    21:00 -2°C° 0 mm 2 mps 736 mmHg 96%
    22:00 -2°C° 0 mm 2 mps 736 mmHg 96%
    23:00 -2°C° 0 mm 2 mps 736 mmHg 96%

    29 January, Wednesday

    Time Temperature Precipitation Wind Pressure Humidity
    00:00 -2°C° 0.1 mm 2 mps 736 mmHg 96%
    01:00 -2°C° 0.1 mm 2 mps 736 mmHg 97%
    02:00 -2°C° 0.1 mm 2 mps 736 mmHg 97%
    03:00 -2°C° 0.1 mm 2 mps 736 mmHg 97%
    04:00 -1°C° 0.1 mm 2 mps 736 mmHg 97%
    05:00 -1°C° 0.1 mm 2 mps 735 mmHg 97%
    06:00 -1°C° 0.1 mm 2 mps 735 mmHg 97%
    07:00 +1°C° 0.1 mm 2 mps 735 mmHg 97%
    08:00 +1°C° 0.1 mm 2 mps 735 mmHg 97%
    09:00 +1°C° 0 mm 2 mps 735 mmHg 96%
    10:00 0°C° 0 mm 3 mps 736 mmHg 94%
    11:00 0°C° 0 mm 3 mps 736 mmHg 93%
    12:00 0°C° 0 mm 3 mps 735 mmHg 92%
    13:00 0°C° 0 mm 3 mps 735 mmHg 92%
    14:00 0°C° 0 mm 3 mps 735 mmHg 91%
    15:00 0°C° 0 mm 3 mps 735 mmHg 92%
    16:00 0°C° 0 mm 3 mps 735 mmHg 94%
    17:00 -1°C° 0 mm 3 mps 735 mmHg 95%
    18:00 -1°C° 0 mm 3 mps 735 mmHg 96%
    19:00 -1°C° 0 mm 3 mps 735 mmHg 96%
    20:00 -1°C° 0 mm 3 mps 734 mmHg 97%
    21:00 0°C° 0.1 mm 3 mps 734 mmHg 97%
    22:00 0°C° 0.1 mm 3 mps 734 mmHg 97%
    23:00 0°C° 0.1 mm 3 mps 734 mmHg 97%

    30 January, Thursday

    Time Temperature Precipitation Wind Pressure Humidity
    00:00 0°C° 0 mm 3 mps 734 mmHg 97%
    01:00 0°C° 0 mm 3 mps 734 mmHg 96%
    02:00 0°C° 0 mm 3 mps 734 mmHg 96%
    03:00 -1°C° 0.1 mm 3 mps 733 mmHg 96%
    04:00 -2°C° 0.1 mm 4 mps 733 mmHg 96%
    05:00 -2°C° 0.1 mm 4 mps 733 mmHg 97%
    06:00 -2°C° 0.1 mm 4 mps 733 mmHg 97%
    07:00 -2°C° 0.1 mm 4 mps 732 mmHg 96%
    08:00 -2°C° 0.1 mm 4 mps 732 mmHg 96%
    09:00 -2°C° 0.1 mm 4 mps 732 mmHg 96%
    10:00 -2°C° 0.1 mm 4 mps 732 mmHg 96%
    11:00 -2°C° 0.1 mm 4 mps 732 mmHg 96%
    12:00 -2°C° 0.1 mm 4 mps 732 mmHg 96%
    13:00 -2°C° 0.1 mm 4 mps 731 mmHg 95%
    14:00 -2°C° 0.1 mm 4 mps 731 mmHg 94%
    15:00 -2°C° 0.1 mm 4 mps 731 mmHg 94%
    16:00 -2°C° 0.1 mm 4 mps 731 mmHg 93%
    17:00 -1°C° 0.1 mm 3 mps 731 mmHg 93%
    18:00 -2°C° 0.1 mm 3 mps 731 mmHg 93%
    19:00 -2°C° 0.1 mm 3 mps 731 mmHg 94%
    20:00 -2°C° 0.1 mm 3 mps 731 mmHg 95%
    21:00 -2°C° 0.1 mm 3 mps 731 mmHg 94%
    22:00 -4°C° 0.1 mm 3 mps 731 mmHg 94%
    23:00 -4°C° 0.1 mm 3 mps 731 mmHg 94%
    Show more